AirNav   Everest Fuels
 
 317 users online  

Y96 Leo E Goetz County Airport
Onaway, Michigan, USA

GOING TO ONAWAY?


FAA INFORMATION EFFECTIVE 28 FEBRUARY 2019

Location

FAA Identifier: Y96
Lat/Long: 45-22-15.0430N / 084-13-30.0520W
45-22.250717N / 084-13.500867W
45.3708453 / -84.2250144
(estimated)
Elevation: 830 ft. / 253 m (estimated)
Variation: 06W (1985)
From city: 1 mile N of ONAWAY, MI
Time zone: UTC -5 (UTC -4 during Daylight Saving Time)
Zip code: 49765

Airport Operations

Airport use: Open to the public
Activation date: 04/1940
Control tower: no
ARTCC: MINNEAPOLIS CENTER
FSS: LANSING FLIGHT SERVICE STATION
NOTAMs facility: LAN (NOTAM-D service available)
Attendance: UNATNDD
Wind indicator: yes
Segmented circle: yes

Airport Communications

CTAF: 122.9
WX AWOS-3 at PZQ (18 nm E): 118.125 (989-734-7419)

Nearby radio navigation aids

VOR radial/distance  VOR name  Freq  Var
PLNr136/24.2PELLSTON VORTAC111.8006W
GLRr049/29.5GAYLORD VOR/DME109.2006W
APNr308/33.1ALPENA VORTAC108.8007W

Airport Services

Parking: tiedowns
Airframe service: NONE
Powerplant service: NONE
Bottled oxygen: NONE
Bulk oxygen: NONE

Runway Information

Runway 15/33

Dimensions: 2600 x 60 ft. / 792 x 18 m
Surface: asphalt/L
Operational restrictions: RY 15/33 CLSD NOV-APR & WHEN SNOW COVERED. NO SNOW REMOVAL.
RUNWAY 15  RUNWAY 33
Latitude: 45-22.133333N45-21.762833N
Longitude: 084-13.566667W084-13.263167W
Elevation: 830.0 ft.830.0 ft.
Traffic pattern: leftleft
Markings: basic, in fair conditionbasic, in fair condition
Obstructions: 16 ft. road, 525 ft. from runway, 177 ft. right of centerline, 20:1 slope to clear40 ft. trees, 201 ft. from runway, 120 ft. left of centerline
25 FT TREES, 0-400 FT DSTC, 120 FT L.

Runway 3/21

Dimensions: 1400 x 100 ft. / 427 x 30 m
Surface: turf, in fair condition
EXTENSIVE PAVEMENT CRACKING.
Runway edge markings: RY 3/21 MARKED WITH 3 FT YELLOW CONES.
Operational restrictions: RY 03/21, CLSD NOV-APR & WHEN SNOW COVERED. NO SNOW REMOVAL.
RUNWAY 3  RUNWAY 21
Traffic pattern: leftleft
Obstructions: 41 ft. trees, 396 ft. from runway, 110 ft. right of centerline, 9:1 slope to clear36 ft. trees, 120 ft. from runway, 100 ft. right of centerline, 3:1 slope to clear

Airport Ownership and Management from official FAA records

Ownership: Publicly-owned
Owner: PRESQUE ISLE COUNTY
151 E. HURON RD, P.O. BOX 110
ROGERS CITY, MI 49779
Phone 989-734-4309
Manager: MICHAEL T JERMEAY
151 E. HURON RD, P.O. BOX 110
ROGERS CITY, MI 49779
Phone 989-464-6887

Airport Operational Statistics

Aircraft operations: 200/year *
50% transient general aviation
50% local general aviation
* for 12-month period ending 31 December 2014

Additional Remarks

RANDOM 10-20 FT. BRUSH & TREES IN PRIM SFC.
RY 15, 11 FT POWERLINE 750 FT FM THLD 125 FT R OF CNTRLN. RY 33 14 FT POWERLINE, 676 FT FM THLD, APCH RATIO 34:1.
ARPT TO BE CLSD (ABANDONED) MID 2019 - CHECK NOTAMS.

Instrument Procedures

There are no published instrument procedures at Y96.

Some nearby airports with instrument procedures:

KPZQ - Presque Isle County Airport (18 nm E)
KSLH - Cheboygan County Airport (21 nm NW)
6Y1 - Bois Blanc Island Airport (26 nm NW)
KPLN - Pellston Regional Airport of Emmet County (27 nm NW)
KMGN - Harbor Springs Airport (29 nm W)
 
Loc | Ops | Rwys | IFR | FBO | Links
Com | Nav | Svcs | Stats | Notes
Area around Y96 (Leo E Goetz County Airport)
 
Road maps at: MapQuest Bing Google
 
Aerial photo
No photo
 
Sectional chart

 
Airport distance calculator
Flying to Leo E Goetz County Airport? Find the distance to fly.

From to Y96

Sunrise and sunset
Times for 20-Mar-2019
 Local
(UTC-4)
 Zulu
(UTC)
Morning civil twilight07:1211:12
Sunrise07:4111:41
Sunset19:4823:48
Evening civil twilight20:1700:17

Current date and time
Zulu (UTC)  20-Mar-2019 06:51:51
Local (UTC-4)  20-Mar-2019 02:51:51
 
METAR
KPZQ 
18nm E 
200636Z AUTO 20008KT 10SM OVC090 01/M06 A3011 RMK AO2 T00051065
KSLH 
21nm NW 
200635Z AUTO 21008G14KT 10SM OVC095 02/M06 A3006 RMK AO2 T00201059
KPLN 
27nm NW 
200554Z AUTO 22010G18KT 10SM OVC085 03/M06 A3008 RMK AO2 SLP194 T00281061 10033 20017 58022
KGLR 
29nm SW 
200553Z AUTO 20006KT 10SM FEW080 M01/M10 A3010 RMK AO2 SLP206 T10111100 10028 21011 58020
KMGN 
29nm W 
200635Z AUTO 23006KT 10SM SCT060 BKN070 OVC085 02/M05 A3008 RMK AO2 T00241056
KAPN 
33nm SE 
200554Z AUTO 20006KT 10SM CLR 01/M07 A3014 RMK AO2 SLP215 T00061072 10056 21006 58015
KMCD 
33nm NW 
200636Z AUTO 20009G14KT 10SM OVC060 03/M05 A3005 RMK AO2 T00251046
TAF
KPLN 
27nm NW 
200529Z 2006/2106 22008G18KT P6SM OVC090 FM201200 21008KT 6SM -SHSNRA BR SCT040 OVC080 WS020/24045KT FM201500 22010KT 6SM -SHRASN BR OVC040 FM201700 22011G20KT 3SM -SHRA BR OVC025 FM202200 26006KT 3SM -SHRASN BR OVC015
KAPN 
33nm SE 
200529Z 2006/2106 12006KT P6SM SCT120 FM200900 21007KT P6SM BKN120 WS020/24035KT FM201400 20010KT 6SM -SHRASN BR SCT040 OVC080 FM201800 21010KT 6SM -SHRA BR OVC040 FM202100 20009KT 1 1/2SM -SHRA BR OVC025
NOTAMs
Click for the latest NOTAMs
NOTAMs are issued by the DoD/FAA and will open in a separate window not controlled by AirNav.

 

 
 

Would you like to see your business listed on this page?

 If your business provides an interesting product or service to pilots, flight crews, aircraft, or users of the Leo E Goetz County Airport, you should consider listing it here.  To start the listing process, click on the button below
 
Add a business
 

Other Pages about Leo E Goetz County Airport

www.presqueislecounty.org/airport.html
Page from the Michigan Airport Directory (PDF)
 
Update a link
 
Copyright © AirNav, LLC. All rights reserved. Privacy Policy  Contact